FENGYUN 1C DEB

Satellite information

Favourite Embed

Satellite Type and Status

DEBRISIN ORBIT

Key statistics

Satellite FENGYUN 1C DEB at a glance.

Uptime

9554

Days in orbit

Revolutions

≈ 14.4

Per day

Orbit

SSO

Sun Synchronous Orbit

Inclination

99.6

Latest

Satellite identification and parameters

Extended collection of information and parameters for FENGYUN 1C DEB.

Object identification

Identified? True

Debris? True

Object name: FENGYUN 1C DEB

International designator: 1999-025CVJ

Object number (NORAD): 32212

Object ID (CCSDS): 32212

Country: PEOPLES REPUBLIC OF CHINA (PRC)

Current information (Y/N): Y

RCS size: SMALL

Orbital parameters

Period: 100.027 minutes

Inclination: 99.5792 deg

SMA: 7137.923 km

Apoapsis: 858.952 km

Periapsis: 660.625 km

RAAN: 259.8702 deg

Eccentricy: 0.0138925

Argument of periapsis: 193.9526 deg

Mean anomaly: 234.4875 deg

Mean motion: 14.3961035 rev/day

Mean motion (dot): 0.00001141 rev/day2

B* drag term: 0.00034284 1/REarth

Two-line elements (TLE)

Creation date: July 1, 2025, 6:11 p.m.

Reference frame: TEME

Reference center: EARTH

Epoch: July 1, 2025, 10:50 a.m. UTC

TLE line 0: 0 FENGYUN 1C DEB

TLE line 1: 1 32212U 99025CVJ 25182.45152959 .00001141 00000-0 34284-3 0 9994

TLE line 2: 2 32212 99.5792 259.8702 0138925 193.9526 234.4875 14.39610350936978

Live tracking on map

Real-time ground track for satellite FENGYUN 1C DEB.

In-orbit conjunctions

A list of the most updated potential collisions computed for object FENGYUN 1C DEB.

Target Orbit TCA Probability of collision Miss distance Type
CZ-6A DEB LEO 2025-02-27 14:08:12 0.0001189141 782.0 (m) DEBRIS
CZ-6A DEB LEO 2024-11-09 22:29:50 0.0001204147 881.0 (m) DEBRIS

Associated space launch

Chinese polar orbiting meteorological satellite

FENGYUN 1C DEB was lifted into orbit during the mission ‘Long March 4B | Feng Yun 1C’, on board a Long March 4B space rocket.

The launch took place on May 10, 1999, 1:33 a.m. from Launch Complex 7.

For more information about the launch, click the button.

Launch to space Long March 4B | Feng Yun 1C
Long March 4B | Feng Yun 1C

Agency: N/A

Status: Launch Successful

Launch date: May 10, 1999, 1:33 a.m. UTC

Rocket: Long March 4B

Launch pad: Launch Complex 7

Location: Taiyuan Satellite Launch Center, People's Republic of China

...

Latest news about this satellite

There are no fresh news available about this satellite. Check back as we update our databases every day.


Newsletter sign-up

Weekly statistics, charts and insights to help you stay on top of the space industry.